Location: Fairhaven
(34.9340°N, 89.7987°W)
Time: 03:22:50
(UTC+00:00)

Cosmos 2173 Rocket - Pass Details

Date: 13 February 2026
Orbit: 943 x 1000 km, 83.0° (Epoch: 6 March)

Event Time Altitude Azimuth Distance (km) Brightness Sun altitude
Rises 12:08:06 0° 186° (S) 3,694 7.1 -8.6°
Reaches altitude 10° 12:10:37 10° 187° (S) 2,753 6.4 -8.1°
Maximum altitude 12:16:57 85° 275° (W) 1,007 4.1 -6.8°
Drops below altitude 10° 12:23:22 10° 5° (N) 2,773 6.3 -5.5°
Sets 12:25:54 0° 6° (N) 3,723 7.0 -5.0°
